Find Starlink 35384

NORAD ID: 65884 Int'l Des: 2025-224 Owner: SPXS Country: US Constellation: starlink operational
LEOCIRCULAR

現在のビュー

3D地球を読み込み中...

About Starlink 35384

Starlink 35384 (NORAD 65884) is a starlink constellation satellite (v2 mini) launched Oct 7, 2025 by SPXS of US. It operates in LEO, CIRCULAR orbit with a mass of 575.00 kg.

次回通過

Passes for default location (London). Set your location on the main map for personalized predictions.

高度履歴

Loading altitude history...

軌道要素

1 65884U 25224C 26265.22889877 .00017467 00000-0 52677-3 0 9993
2 65884 53.1617 177.8639 0001876 109.1313 250.9893 15.34407577 54926
Epoch: Sep 22, 2026 • Age: 14 hours

現在のステータス

高度 462.9 km
遠地点 / 近地点 N/A
速度 7.64 km/s
衛星直下点 16.84°N, 108.36°W
打ち上げ日 Oct 7, 2025
運用期間 0.9 years
タイプ internet

技術仕様

分類 Payload
質量 575.00 kg
乾燥質量 530.00 kg
長さ 0.30 m
スパン 29.00 m
形状 ? Box + pan
製造者 SPXS
バスタイプ Starlink V2MO
フェーズステータス In Orbit
所有者/国 SPXS/US

Most Searched